Home   Weather   Navi Mumbai   Past weeks

Flag for India Past Weather in Navi Mumbai, Maharashtra, India — Yesterday and Last 2 Weeks

79 °F


Feels Like: 82 °F
Forecast: 72 / 90 °F
Wind: 6 mph from North

Location: Mumbai / Santacruz

Current Time: Oct 25, 2016 at 5:21:35 AM

Latest Report: Oct 25, 2016 at 5:00 AM

Visibility: 2 mi

Pressure: 29.83 "Hg

Humidity: 84%

Dew Point: 73 °F

Location of Navi MumbaiLocation

Past Weather in Navi Mumbai — Graph


Navi Mumbai Temperature Yesterday

Maximum temperature yesterday: 91 °F (at 12:30 PM)
Minimum temperature yesterday: 79 °F (at 6:00 AM)
Average temperature yesterday: 84 °F

High & Low Weather Summary for the Past Weeks

High97 °F (Oct 18, 12:30 PM)94% (Oct 10, 4:30 AM)29.92 "Hg (Oct 10, 4:30 AM)
Low77 °F (Oct 14, 6:30 AM)22% (Oct 18, 12:30 PM)29.71 "Hg (Oct 20, 2:30 PM)
Average85 °F67%29.82 "Hg
* Reported Oct 10 4:30 AM — Oct 25 4:30 AM, Navi Mumbai, Weather by CustomWeather, © 2016

Note: Actual official high and low records may vary slightly from our data, if they occured in-between our weather recording intervals... More about our weather records


Navi Mumbai Weather History for the Previous 24 Hours

Scroll right to see more
Time TempWeatherWind HumidityBarometerVisibility
4:30 AM
Tue, Oct 25
79 °FHaze.6 mph84%29.83 "Hg2 mi
4:00 AM79 °FHaze.5 mph84%29.83 "Hg2 mi
3:30 AM79 °FHaze.7 mph84%29.83 "Hg2 mi
3:00 AM79 °FHaze.5 mph84%29.83 "Hg2 mi
2:30 AM81 °FHaze.3 mph79%29.83 "Hg2 mi
2:00 AM81 °FHaze.5 mph79%29.83 "Hg2 mi
1:30 AM81 °FHaze.5 mph79%29.83 "Hg2 mi
1:00 AM81 °FHaze.6 mph79%29.86 "Hg2 mi
12:30 AM81 °FHaze.5 mph79%29.86 "Hg2 mi
12:00 AM81 °FHaze.3 mph79%29.86 "Hg2 mi
11:30 PM
Mon, Oct 24
81 °FHaze.6 mph79%29.86 "Hg2 mi
11:00 PM81 °FHaze.6 mph79%29.86 "Hg2 mi
10:00 PM82 °FHaze.6 mph70%29.86 "Hg2 mi
9:30 PM82 °FHaze.7 mph74%29.86 "Hg2 mi
9:00 PM82 °FHaze.5 mph74%29.86 "Hg2 mi
8:30 PM82 °FHaze.7 mph74%29.86 "Hg2 mi
8:00 PM82 °FHaze.6 mph74%29.86 "Hg2 mi
7:30 PM82 °FHaze.8 mph74%29.83 "Hg2 mi
7:00 PM84 °FHaze.7 mph70%29.83 "Hg2 mi
6:30 PM84 °FHaze.9 mph70%29.83 "Hg2 mi
6:00 PM84 °FHaze.9 mph70%29.83 "Hg2 mi
5:30 PM84 °FPassing clouds.12 mph66%29.83 "Hg2 mi
5:00 PM86 °FPassing clouds.9 mph66%29.80 "Hg2 mi
4:30 PM86 °FPassing clouds.9 mph66%29.80 "Hg2 mi
4:00 PM88 °FPassing clouds.12 mph62%29.80 "Hg2 mi
3:30 PM88 °FPassing clouds.12 mph62%29.80 "Hg2 mi
3:00 PM88 °FPassing clouds.13 mph62%29.80 "Hg2 mi
2:30 PM90 °FPassing clouds.10 mph49%29.83 "Hg2 mi
2:00 PM90 °FPassing clouds.12 mph55%29.83 "Hg2 mi
1:30 PM90 °FPassing clouds.13 mph59%29.83 "Hg1 mi
1:00 PM90 °FPassing clouds.12 mph59%29.86 "Hg1 mi
12:30 PM91 °FPassing clouds.8 mph38%29.86 "Hg1 mi
12:00 PM90 °FPassing clouds.3 mph43%29.89 "Hg1 mi
11:30 AM90 °FPassing clouds.6 mph46%29.89 "Hg1 mi
11:00 AM88 °FPassing clouds.6 mph52%29.92 "Hg1 mi
10:30 AM86 °FPassing clouds.5 mph55%29.92 "Hg1 mi
10:00 AM88 °FPassing clouds.6 mph55%29.92 "Hg1 mi
9:30 AM84 °FHaze.5 mph62%29.92 "Hg1 mi
9:00 AM84 °FHaze.9 mph66%29.92 "Hg1 mi
8:30 AM81 °FHaze.3 mph84%29.89 "Hg1 mi
8:00 AM81 °FHaze.No wind79%29.89 "Hg1 mi
7:30 AM79 °FHaze.No wind84%29.89 "Hg1 mi
7:00 AM79 °FHaze.5 mph84%29.86 "Hg1 mi
6:30 AM79 °FHaze.6 mph84%29.86 "Hg1 mi
6:00 AM79 °FHaze.3 mph84%29.86 "Hg1 mi
5:30 AM81 °FHaze.6 mph84%29.83 "Hg1 mi
5:00 AM81 °FHaze.5 mph84%29.83 "Hg1 mi
Weather by CustomWeather, © 2016

See weather overviewHow to use our weather pages